Showing default

NAVSTAR 76 (USA 266), 41328

Orbit data source: Space-Track

NAVSTAR 76 (USA 266), 41328 is a payload satellite owned by USAF SMC (US) in MEO that was launched on Fri, 05 Feb 2016 UTC via an ATLAS V 401 launch vehicle from the Air Force Eastern Test Range (AFETR). Payloads include a variety of satellites, spacecraft, and rockets equipped with specific instruments for various scientific and technological missions. These include communications satellites like Starlink; space stations such as the ISS; scientific satellites like the Hubble; Earth observation satellites from companies like Planet Labs, Umbra, and HawkEye 360; GPS; miniature CubeSats for education and research; and military/defense satellites.

Loading next visibility...
NAVSTAR 76 (USA 266) details
Identifier
41328, 2016-007A
Orbit
MEO
Last TLE update1 day ago
Origin
Flag of USUSAF SMC (US)
ManufacturerBoeing/ES
MissionOperational Defense Navigation
Bus & MotorGPS IIF, AOCS
Mass1,630 kg wet, ~1,500 kg dry
Launch date (UTC)
2016-02-05 (9 years ago)
Launch vehicle
ATLAS V 401
Launch site
Air Force Eastern Test Range (AFETR)
Object type
Payload
Rocket body
Debris
Shape & HBRBox + 2 Pan, Unknown HBR
Radar Cross Section13.960 m², Large (>1 m²)

Expand to show TLE details & history

TLE from 1 day ago
0 NAVSTAR 76 (USA 266)
1 41328U 16007A   24360.40121756 -.00000008  00000-0  00000-0 0  9992
2 41328  55.2125 110.8525 0084174 239.5909 119.5591  2.00552470 65033
Epoch: 2024-12-25T09:37Z
Definitive object data (Epoch: 2024-12-25T09:37:45.197Z)
Latitude-0.00001°
Longitude-127.988°
Altitude20,295.452 km
Speed3.858 km/s
True Right ascension07h 23m 22s
True Declination0° 00' 00"
Sunlit
Object was in daylight at TLE epoch
Visualization TLE readout
Latitude31.38282°
Longitude26.94779°
Altitude20,217.703 km
Speed3.87 km/s
Apparent Right ascension18h 30m 40s
Apparent Declination25° 10' 05"
Sunlit
Object is in daylight
Visualization observer readout
Local Sidereal Time13:39:39
Azimuth79.897° E
Elevation28.599°
Doppler factor1
Orbital elements
Apogee altitude20,406.768 km
Perigee altitude19,959.613 km
Semi-major axis26,561.328 km
Eccentricity0.0084174
Inclination55.2125°
RAAN110.8525°
Arg. of periapsis239.5909°
True anomaly120.39376°
Mean anomaly119.5591°
Eccentric anomaly119.97687°
Mean motion0.50138 °/min
BSTARUnknown
Orbital period718.02 mins
Loading maneuver chart data...
Loading historical data...
Loading historical data...
Loading historical data...
Loading historical data...
Loading historical data...
Loading historical data...
Loading historical data...
Other satellites on launch #7 in the year 2016 (2016-02-05 UTC)

NAVSTAR 76 (USA 266) Visibility forecast

Observer location: undefined°, undefined

Span
Click to sort rows by Start time (UTC) header in descending order
Start Az.
Max El. time (UTC)
Max El. Az.
Max El.
End time (UTC)
End Az.
58 mins2024-12-26 14:17:50.463Z79.927° E2024-12-26 14:17:50.463Z79.927° E25.574°2024-12-26 15:15:50.463Z99.566° ESE
341 mins2024-12-27 08:36:50.463Z206.031° SW2024-12-27 11:31:50.463Z315.404° NNW44.47°2024-12-27 14:17:50.463Z81.377° E
|